Location: Roanoke
(37.2710°N, 79.9420°W)
Time: 04:28:27
(UTC-05:00)

A-11 Canister half - Visible Passes

Search period start: 13 November 2019 00:00
Search period end: 23 November 2019 00:00
Orbit: 1514 x 1686 km, 47.2° (Epoch: 12 November)

Date Brightness Start Highest point End Pass type
(mag) Time Alt. Az. Time Alt. Az. Time Alt. Az.
13 Nov 10.4 04:10:22 18° SSW 04:10:22 18° SSW 04:13:13 10° S visible
13 Nov 9.0 19:10:10 10° SW 19:20:18 83° SE 19:24:38 41° ENE visible
13 Nov 10.0 21:16:13 10° W 21:22:51 41° WNW 21:22:51 41° WNW visible
14 Nov 10.7 03:49:20 14° S 03:49:20 14° S 03:50:40 10° S visible
14 Nov 9.1 18:47:15 10° SW 18:57:20 79° SE 19:03:09 31° ENE visible
14 Nov 9.7 20:53:08 10° W 21:01:22 50° NW 21:01:22 50° NW visible
15 Nov 9.1 18:24:22 10° SW 18:34:24 75° SE 18:41:37 22° ENE visible
15 Nov 9.4 20:30:06 10° W 20:39:49 56° NNW 20:39:49 56° NNW visible
15 Nov 11.2 22:36:59 10° WNW 22:38:01 14° WNW 22:38:01 14° WNW visible
16 Nov 9.2 18:01:30 10° SW 18:11:28 72° SE 18:20:02 16° ENE visible
16 Nov 9.4 20:07:01 10° W 20:17:00 57° NNW 20:18:15 54° N visible
16 Nov 10.9 22:13:56 10° WNW 22:16:27 19° WNW 22:16:27 19° WNW visible
17 Nov 9.3 17:38:38 10° SW 17:48:32 68° SE 17:58:26 11° ENE visible
17 Nov 9.4 19:43:59 10° W 19:53:58 59° NNW 19:56:38 47° NNE visible
17 Nov 10.6 21:50:54 10° WNW 21:54:50 25° NW 21:54:50 25° NW visible
18 Nov 9.4 19:20:57 10° W 19:30:57 60° NNW 19:34:59 39° NE visible
18 Nov 10.3 21:27:51 10° WNW 21:33:11 32° NW 21:33:11 32° NW visible
19 Nov 9.4 18:57:55 10° WSW 19:07:56 62° NNW 19:13:18 31° NE visible
19 Nov 10.0 21:04:48 10° WNW 21:11:31 39° NW 21:11:31 39° NW visible
20 Nov 9.4 18:34:54 10° WSW 18:44:54 64° NNW 18:51:38 24° NE visible
20 Nov 9.8 20:41:46 10° WNW 20:49:49 45° NNW 20:49:49 45° NNW visible
20 Nov 11.3 22:47:47 10° WNW 22:48:01 11° WNW 22:48:01 11° WNW visible
21 Nov 9.4 18:11:52 10° WSW 18:21:53 66° NNW 18:29:56 18° NE visible
21 Nov 9.6 20:18:42 10° WNW 20:28:07 48° N 20:28:07 48° N visible
21 Nov 11.1 22:24:49 10° WNW 22:26:18 16° NW 22:26:18 16° NW visible
22 Nov 9.4 17:48:52 10° WSW 17:58:53 69° NNW 18:08:13 13° ENE visible
22 Nov 9.5 19:55:40 10° WNW 20:05:25 48° N 20:06:25 47° NNE visible
22 Nov 10.8 22:01:50 10° WNW 22:04:36 21° NW 22:04:36 21° NW visible
